Blythe, CA

9:27 AM PDT on September 29, 2016 (GMT -0700)
Blythe

Weather History for KBLH - March, 2014

Change the Weather History Date:

Sunday, March 23, 2014

  Actual Average Record
Temperature  
Mean Temperature 70 °F -  
Max Temperature 86 °F 80 °F 91 °F (1988)
Min Temperature 55 °F 53 °F 43 °F (2011)
Cooling Degree Days 6    
Growing Degree Days 20 (Base 50)    
Moisture  
Dew Point 30 °F    
Average Humidity 24    
Maximum Humidity 42    
Minimum Humidity 11    
Precipitation  
Precipitation 0.00 in - - ()
Sea Level Pressure  
Sea Level Pressure 29.96 in    
Wind  
Wind Speed 5 mph (North)    
Max Wind Speed 8 mph    
Max Gust Speed -    
Visibility 10 miles    
Events      
Averages and records for this station are not official NWS values.
T = Trace of Precipitation, MM = Missing Value Source: NWS Daily Summary

Daily Weather History Graph

Daily Weather History Graph

Search for Another Location

Airport or City:

Trip Planner

Search our weather history database for the weather conditions in past years. The results will help you decide how hot, cold, wet, or windy it might be!

Date:

Astronomy

Mar. 23, 2014 Rise Set
Actual Time 6:38 AM PDT 6:52 PM PDT
Civil Twilight 6:13 AM PDT 7:17 PM PDT
Nautical Twilight 5:44 AM PDT 7:46 PM PDT
Astronomical Twilight 5:15 AM PDT 8:16 PM PDT
Moon 1:00 AM PDT (3/23) 11:37 AM PDT (3/23)
Length of Visible Light 13h 04m
Length of Day
12h 14m
Waning Gibbous, 53% of the Moon is Illuminated
Mar 23
Waning Gibbous
Mar 23
Last Quarter
Mar 30
New
Apr 7
First Quarter
Apr 15
Full

Hourly Weather History & Observations

Time (PDT) Temp. Dew Point Humidity Pressure Visibility Wind Dir Wind Speed Gust Speed Precip Events Conditions
12:52 AM 61.0 °F 28.9 °F 30% 29.94 in 10.0 mi NE 5.8 mph - N/A   Clear
1:52 AM 60.1 °F 28.0 °F 30% 29.95 in 10.0 mi NW 4.6 mph - N/A   Clear
2:52 AM 59.0 °F 28.9 °F 32% 29.95 in 10.0 mi NNW 6.9 mph - N/A   Clear
3:52 AM 57.0 °F 28.9 °F 34% 29.95 in 10.0 mi NNW 8.1 mph - N/A   Clear
4:52 AM 57.9 °F 30.0 °F 35% 29.95 in 10.0 mi NNW 5.8 mph - N/A   Clear
5:52 AM 55.0 °F 28.9 °F 37% 29.97 in 10.0 mi NNW 5.8 mph - N/A   Clear
6:52 AM 57.0 °F 30.0 °F 36% 30.00 in 10.0 mi Calm Calm - N/A   Clear
7:52 AM 59.0 °F 36.0 °F 42% 30.02 in 10.0 mi Calm Calm - N/A   Clear
8:52 AM 64.9 °F 34.0 °F 32% 30.03 in 10.0 mi Calm Calm - N/A   Clear
9:52 AM 71.1 °F 36.0 °F 28% 30.04 in 10.0 mi East 5.8 mph - N/A   Clear
10:52 AM 75.0 °F 37.0 °F 25% 30.04 in 10.0 mi East 6.9 mph - N/A   Clear
11:52 AM 78.1 °F 37.9 °F 24% 30.02 in 10.0 mi Variable 3.5 mph - N/A   Clear
12:52 PM 81.0 °F 39.0 °F 22% 30.00 in 10.0 mi Variable 3.5 mph - N/A   Clear
1:52 PM 82.0 °F 37.9 °F 21% 29.97 in 10.0 mi Variable 4.6 mph - N/A   Clear
2:52 PM 84.0 °F 28.9 °F 14% 29.94 in 10.0 mi Variable 3.5 mph - N/A   Clear
3:52 PM 86.0 °F 30.9 °F 14% 29.92 in 10.0 mi NW 3.5 mph - N/A   Clear
4:52 PM 86.0 °F 27.0 °F 12% 29.91 in 10.0 mi SE 8.1 mph - N/A   Clear
5:52 PM 84.9 °F 24.1 °F 11% 29.91 in 10.0 mi ESE 4.6 mph - N/A   Clear
6:52 PM 82.0 °F 23.0 °F 11% 29.91 in 10.0 mi NE 3.5 mph - N/A   Clear
7:52 PM 78.1 °F 24.1 °F 14% 29.92 in 10.0 mi South 5.8 mph - N/A   Clear
8:52 PM 73.0 °F 24.1 °F 16% 29.93 in 10.0 mi Calm Calm - N/A   Clear
9:52 PM 71.1 °F 23.0 °F 16% 29.94 in 10.0 mi Calm Calm - N/A   Clear
10:52 PM 72.0 °F 26.1 °F 18% 29.95 in 10.0 mi West 4.6 mph - N/A   Clear
11:52 PM 66.9 °F 27.0 °F 22% 29.95 in 10.0 mi NW 6.9 mph - N/A   Clear